[[{"header":{"parameterUnit":"m.s-1","parameterCategory":1,"la1":30.2992,"la2":30.254,"lo1":-89.0895,"lo2":-89.0443,"dy":0.0025,"dx":0.0025,"nx":19,"ny":19,"refTime":"2026-05-09T09:00:00:Z","depth":0,"parameterNumber":2,"parameterNumberName":"U-component_of_WINDS"},"data":[0,0,0,-4.4203,-4.4202,-4.4109,-4.4108,-4.403,-4.4029,0,0,0,0,0,0,0,0,0,0,0,-4.4258,-4.4259,-4.4203,-4.4202,-4.4109,-4.4108,-4.403,-4.4029,0,0,0,0,0,0,0,0,0,0,0,-4.4258,-4.4259,-4.4259,-4.4201,-4.4109,-4.4108,-4.403,-4.4085,0,0,0,0,0,0,0,0,0,0,-4.4168,-4.4247,-4.4259,-4.4259,-4.4201,-4.4109,-4.4108,-4.4087,-4.4081,-4.409,0,-4.4108,0,-4.4068,-4.4027,-4.4027,0,0,0,-4.418,-4.4252,-4.4202,-4.4259,-4.4201,-4.4109,-4.4145,-4.4083,-4.4077,-4.4083,-4.4106,-4.4102,-4.4066,-4.4027,-4.4026,-4.4152,-4.4154,0,0,-4.4186,-4.4256,-4.4206,-4.4199,-4.4219,-4.4148,-4.4142,-4.4079,-4.4108,-4.4106,-4.41,-4.4065,-4.4026,-4.4026,-4.4151,-4.4153,0,0,0,-4.4215,-4.4261,-4.4211,-4.4204,-4.4184,-4.4146,-4.4139,-4.411,-4.4088,-4.4098,-4.4064,-4.4026,-4.4026,-4.4149,-4.4151,-4.4299,0,0,0,-4.4217,-4.4278,-4.4214,-4.4257,-4.4186,-4.4147,-4.4173,-4.4093,-4.4083,-4.4065,-4.4026,-4.4025,-4.4147,-4.415,-4.4291,-4.4357,0,0,0,-4.4255,-4.4282,-4.4278,-4.4261,-4.4223,-4.4146,-4.412,-4.4089,-4.4064,-4.4027,-4.4025,-4.4146,-4.415,-4.4284,-4.4345,-4.4409,0,0,0,-4.4316,-4.4411,-4.4282,-4.4373,-4.4225,-4.4239,-4.4119,-4.4126,-4.4112,-4.4026,-4.4147,-4.4151,-4.4282,-4.4337,-4.4403,-4.4477,-4.4515,0,0,-4.4475,-4.4433,-4.4481,-4.4362,-4.4418,-4.4247,-4.4322,-4.4242,-4.4172,-4.4162,-4.4164,-4.4293,-4.4344,-4.4408,-4.4702,-4.4733,0,0,0,-4.4555,-4.4591,-4.459,-4.458,-4.4522,-4.4475,-4.4376,-4.4345,-4.4332,-4.4183,-4.4332,-4.436,-4.4394,-4.4427,-4.4453,-4.4477,-4.4169,-4.4169,-4.4168,-4.4882,-4.4789,-4.4861,-4.4757,-4.4748,-4.4643,-4.4627,-4.4567,-4.4475,-4.4512,-4.4509,-4.4699,-4.4739,-4.4758,-4.4785,-4.454,-4.4541,-4.4541,-4.4541,-4.5106,-4.5141,-4.5015,-4.5041,-4.4941,-4.496,-4.4861,-4.4795,-4.4796,-4.4694,-4.472,-4.4618,-4.4795,-4.4813,-4.4552,-4.455,-4.4549,-4.4548,-4.4547,-4.531,-4.531,-4.5272,-4.5246,-4.5236,-4.5124,-4.5132,-4.5039,-4.4952,-4.4977,-4.4962,-4.4959,-4.4944,-4.4976,-4.4977,-4.4978,-4.4978,-4.4979,-4.4979,-4.5537,-4.5488,-4.5507,-4.5451,-4.5431,-4.5393,-4.5286,-4.5262,-4.5212,-4.5143,-4.5143,-4.5046,-4.483,-4.4778,-4.4989,-4.4987,-4.4986,-4.4985,-4.4984,-4.5799,-4.5724,-4.5754,-4.5734,-4.5658,-4.5653,-4.5534,-4.5493,-4.546,-4.5466,-4.5362,-4.5218,-4.5167,-4.5146,-4.5101,-4.5383,-4.5383,-4.5383,-4.5383,-4.5971,-4.5936,-4.5944,-4.5918,-4.5881,-4.5776,-4.5807,-4.5723,-4.5624,-4.5596,-4.5541,-4.5475,-4.5457,-4.5417,-4.5389,-4.5346,-4.5684,-4.5685,-4.5685,-4.6126,-4.6083,-4.6131,-4.6035,-4.5967,-4.5911,-4.5937,-4.5908,-4.578,-4.5695,-4.5572,-4.5559,-4.545,-4.542,-4.5336,-4.5295,-4.5215,0,0]},{"header":{"parameterUnit":"m.s-1","parameterCategory":1,"la1":30.2992,"la2":30.254,"lo1":-89.0895,"lo2":-89.0443,"dy":0.0025,"dx":0.0025,"nx":19,"ny":19,"refTime":"2026-05-09T09:00:00:Z","depth":0,"parameterNumber":3,"parameterNumberName":"V-component_of_WINDS"},"data":[0,0,0,2.1352,2.135,2.1226,2.1225,2.1031,2.1029,0,0,0,0,0,0,0,0,0,0,0,2.1378,2.1376,2.1353,2.1349,2.1226,2.1225,2.1031,2.1029,0,0,0,0,0,0,0,0,0,0,0,2.1379,2.1377,2.1375,2.1349,2.1226,2.1225,2.1032,2.1136,0,0,0,0,0,0,0,0,0,0,2.1261,2.1276,2.1377,2.1375,2.1348,2.1226,2.1225,2.1141,2.1129,2.1075,0,2.1034,0,2.1029,2.1015,2.1014,0,0,0,2.1355,2.1286,2.1264,2.1375,2.1347,2.1226,2.1283,2.1135,2.1121,2.1059,2.1031,2.1024,2.1026,2.1013,2.1012,2.0703,2.0702,0,0,2.1362,2.1347,2.1273,2.1255,2.1283,2.1287,2.1279,2.1127,2.1091,2.103,2.102,2.1022,2.1012,2.101,2.0705,2.0703,0,0,0,2.1378,2.1351,2.1334,2.1262,2.1243,2.1283,2.1274,2.1098,2.1094,2.1018,2.102,2.1011,2.1008,2.0707,2.0704,2.0606,0,0,0,2.1382,2.1361,2.1336,2.1326,2.1246,2.1171,2.1248,2.1104,2.1088,2.1021,2.1011,2.1006,2.0709,2.0706,2.0613,2.0559,0,0,0,2.1389,2.1362,2.1341,2.1325,2.1273,2.1174,2.1162,2.1101,2.1088,2.1014,2.1005,2.071,2.0706,2.0619,2.0569,2.047,0,0,0,2.139,2.1253,2.134,2.1186,2.1274,2.1119,2.1163,2.1046,2.0971,2.101,2.0709,2.0705,2.0621,2.0576,2.0477,2.0382,2.0343,0,0,2.1208,2.1231,2.1141,2.1215,2.1042,2.1138,2.0946,2.0887,2.0889,2.0762,2.0755,2.0611,2.057,2.0472,2.0137,2.0106,0,0,0,2.1078,2.1013,2.097,2.0903,2.086,2.0815,2.0789,2.0766,2.0661,2.0825,2.0551,2.0527,2.047,2.0424,2.0398,2.0346,2.0685,2.0685,2.0686,2.0794,2.0811,2.0662,2.0663,2.0595,2.057,2.0513,2.0477,2.0509,2.0444,2.0404,2.0201,2.0148,2.0128,2.0074,2.036,2.036,2.0359,2.0359,2.0523,2.0431,2.0483,2.0356,2.0371,2.0261,2.0228,2.0255,2.0148,2.0233,2.0182,2.0268,2.0093,2.0046,2.0352,2.0353,2.0354,2.0355,2.0355,2.0335,2.0293,2.0274,2.0176,2.0096,2.0099,1.9996,2.0012,2.0025,1.9977,1.9932,1.9934,1.9932,1.9956,1.9955,1.9955,1.9954,1.9954,1.9953,2.0144,2.0126,2.0042,1.9986,1.9942,1.9887,1.9859,1.9813,1.9765,1.9783,1.9783,1.9816,2.0078,2.0139,1.9942,1.9944,1.9945,1.9946,1.9947,1.9854,1.9923,1.9793,1.975,1.9682,1.9597,1.9623,1.9527,1.9491,1.9437,1.9483,1.9676,1.9696,1.9717,1.9768,1.9486,1.9486,1.9486,1.9486,1.969,1.9706,1.9575,1.9504,1.9437,1.9446,1.9286,1.926,1.9243,1.9219,1.9263,1.9334,1.9355,1.9362,1.9391,1.9438,1.9078,1.9078,1.9078,1.951,1.9519,1.9385,1.9379,1.9326,1.9277,1.9125,1.9032,1.9027,1.9061,1.9199,1.9216,1.933,1.9368,1.94,1.9444,1.9531,0,0]}]]